owner,sensor,date,latitude,longitude,air_pressure(mBar),qcFlag 
TABS,ioos:station:wmo:42045:1,2009-05-01T00:00:00Z,26.2168,-96.4998,1012.96,11111222 
TABS,ioos:station:wmo:42045:1,2009-05-01T00:30:00Z,26.2168,-96.4998,1013.17,11111222 
TABS,ioos:station:wmo:42045:1,2009-05-01T01:00:00Z,26.2168,-96.4998,1013.48,11111222 
TABS,ioos:station:wmo:42045:1,2009-05-01T01:30:00Z,26.2168,-96.4998,1013.76,11111222 
TABS,ioos:station:wmo:42045:1,2009-05-01T02:00:00Z,26.2168,-96.4998,1013.97,11111222 
TABS,ioos:station:wmo:42045:1,2009-05-01T02:30:00Z,26.2168,-96.4998,1014.5,11111222 
TABS,ioos:station:wmo:42045:1,2009-05-01T03:00:00Z,26.2168,-96.4998,1014.65,11111222 
TABS,ioos:station:wmo:42045:1,2009-05-01T03:30:00Z,26.2168,-96.4998,1014.53,11111222 
TABS,ioos:station:wmo:42045:1,2009-05-01T04:00:00Z,26.2168,-96.4998,1014.45,11111222 
TABS,ioos:station:wmo:42045:1,2009-05-01T04:30:00Z,26.2168,-96.4998,1014.5,11111222 
TABS,ioos:station:wmo:42045:1,2009-05-01T05:00:00Z,26.2168,-96.4998,1014.76,11111222 
TABS,ioos:station:wmo:42045:1,2009-05-01T05:30:00Z,26.2168,-96.4998,1014.41,11111222 
TABS,ioos:station:wmo:42045:1,2009-05-01T06:00:00Z,26.2168,-96.4998,1014.43,11111222 
TABS,ioos:station:wmo:42045:1,2009-05-01T06:30:00Z,26.2168,-96.4998,1014.28,11111222 
TABS,ioos:station:wmo:42045:1,2009-05-01T07:00:00Z,26.2168,-96.4998,1014.28,11111222 
TABS,ioos:station:wmo:42045:1,2009-05-01T07:30:00Z,26.2168,-96.4998,1014.46,11111222 
TABS,ioos:station:wmo:42045:1,2009-05-01T08:00:00Z,26.2168,-96.4998,1014.4,11111222 
TABS,ioos:station:wmo:42045:1,2009-05-01T08:30:00Z,26.2168,-96.4998,1013.75,11111222 
TABS,ioos:station:wmo:42045:1,2009-05-01T09:00:00Z,26.2168,-96.4998,1013.94,11111222 
TABS,ioos:station:wmo:42045:1,2009-05-01T09:30:00Z,26.2168,-96.4998,1014.17,11111222 
TABS,ioos:station:wmo:42045:1,2009-05-01T10:00:00Z,26.2168,-96.4998,1014.31,11111222 
TABS,ioos:station:wmo:42045:1,2009-05-01T10:30:00Z,26.2168,-96.4998,1014.61,11111222 
TABS,ioos:station:wmo:42045:1,2009-05-01T11:00:00Z,26.2168,-96.4998,1014.62,11111222 
TABS,ioos:station:wmo:42045:1,2009-05-01T11:30:00Z,26.2168,-96.4998,1014.73,11111222 
TABS,ioos:station:wmo:42045:1,2009-05-01T12:00:00Z,26.2168,-96.4998,1014.99,11111222 
TABS,ioos:station:wmo:42045:1,2009-05-01T12:30:00Z,26.2168,-96.4998,1015.15,11111222 
TABS,ioos:station:wmo:42045:1,2009-05-01T13:00:00Z,26.2168,-96.4998,1015.33,11111222 
TABS,ioos:station:wmo:42045:1,2009-05-01T13:30:00Z,26.2168,-96.4998,1015.62,11111222 
TABS,ioos:station:wmo:42045:1,2009-05-01T14:00:00Z,26.2168,-96.4998,1015.58,11111222 
TABS,ioos:station:wmo:42045:1,2009-05-01T14:30:00Z,26.2168,-96.4998,1015.95,11111222 
TABS,ioos:station:wmo:42045:1,2009-05-01T15:00:00Z,26.2168,-96.4998,1016.28,11111222 
TABS,ioos:station:wmo:42045:1,2009-05-01T15:30:00Z,26.2168,-96.4998,1016.23,11111222 
TABS,ioos:station:wmo:42045:1,2009-05-01T16:00:00Z,26.2168,-96.4998,1016.61,11111222 
TABS,ioos:station:wmo:42045:1,2009-05-01T16:30:00Z,26.2168,-96.4998,1016.39,11111222 
TABS,ioos:station:wmo:42045:1,2009-05-01T17:00:00Z,26.2168,-96.4998,1016.09,11111222 
TABS,ioos:station:wmo:42045:1,2009-05-01T17:30:00Z,26.2168,-96.4998,1015.94,11111222 
TABS,ioos:station:wmo:42045:1,2009-05-01T18:00:00Z,26.2168,-96.4998,1015.63,11111222 
TABS,ioos:station:wmo:42045:1,2009-05-01T18:30:00Z,26.2168,-96.4998,1015.42,11111222 
TABS,ioos:station:wmo:42045:1,2009-05-01T19:00:00Z,26.2168,-96.4998,1014.92,11111222 
TABS,ioos:station:wmo:42045:1,2009-05-01T19:30:00Z,26.2168,-96.4998,1014.41,11111222 
TABS,ioos:station:wmo:42045:1,2009-05-01T20:00:00Z,26.2168,-96.4998,1014.23,11111222 
TABS,ioos:station:wmo:42045:1,2009-05-01T20:30:00Z,26.2168,-96.4998,1013.83,11111222 
TABS,ioos:station:wmo:42045:1,2009-05-01T21:00:00Z,26.2168,-96.4998,1013.37,11111222 
TABS,ioos:station:wmo:42045:1,2009-05-01T21:30:00Z,26.2168,-96.4998,1013.04,11111222 
TABS,ioos:station:wmo:42045:1,2009-05-01T22:00:00Z,26.2168,-96.4998,1012.9,11111222 
TABS,ioos:station:wmo:42045:1,2009-05-01T22:30:00Z,26.2168,-96.4998,1012.61,11111222 
TABS,ioos:station:wmo:42045:1,2009-05-01T23:00:00Z,26.2168,-96.4998,1012.39,11111222 
TABS,ioos:station:wmo:42045:1,2009-05-01T23:30:00Z,26.2168,-96.4998,1012.31,11111222 
TABS,ioos:station:wmo:42045:1,2009-05-02T00:00:00Z,26.2168,-96.4998,1012.11,11111222 
TABS,ioos:station:wmo:42045:1,2009-05-02T00:30:00Z,26.2168,-96.4998,1012.08,11111222 
TABS,ioos:station:wmo:42045:1,2009-05-02T01:00:00Z,26.2168,-96.4998,1012.23,11111222 
TABS,ioos:station:wmo:42045:1,2009-05-02T01:30:00Z,26.2168,-96.4998,1012.52,11111222 
TABS,ioos:station:wmo:42045:1,2009-05-02T02:00:00Z,26.2168,-96.4998,1012.95,11111222 
TABS,ioos:station:wmo:42045:1,2009-05-02T02:30:00Z,26.2168,-96.4998,1013.11,11111222 
TABS,ioos:station:wmo:42045:1,2009-05-02T03:00:00Z,26.2168,-96.4998,1013.59,11111222 
TABS,ioos:station:wmo:42045:1,2009-05-02T03:30:00Z,26.2168,-96.4998,1013.54,11111222 
TABS,ioos:station:wmo:42045:1,2009-05-02T04:00:00Z,26.2168,-96.4998,1013.6,11111222 
TABS,ioos:station:wmo:42045:1,2009-05-02T04:30:00Z,26.2168,-96.4998,1013.55,11111222 
TABS,ioos:station:wmo:42045:1,2009-05-02T05:00:00Z,26.2168,-96.4998,1013.55,11111222 
TABS,ioos:station:wmo:42045:1,2009-05-02T05:30:00Z,26.2168,-96.4998,1013.73,11111222 
TABS,ioos:station:wmo:42045:1,2009-05-02T06:00:00Z,26.2168,-96.4998,1013.85,11111222 
TABS,ioos:station:wmo:42045:1,2009-05-02T06:30:00Z,26.2168,-96.4998,1013.55,11111222 
TABS,ioos:station:wmo:42045:1,2009-05-02T07:00:00Z,26.2168,-96.4998,1013.13,11111222 
TABS,ioos:station:wmo:42045:1,2009-05-02T07:30:00Z,26.2168,-96.4998,1012.6,11111222 
TABS,ioos:station:wmo:42045:1,2009-05-02T08:00:00Z,26.2168,-96.4998,1012.23,11111222 
TABS,ioos:station:wmo:42045:1,2009-05-02T08:30:00Z,26.2168,-96.4998,1011.83,11111222 
TABS,ioos:station:wmo:42045:1,2009-05-02T09:00:00Z,26.2168,-96.4998,1011.75,11111222 
TABS,ioos:station:wmo:42045:1,2009-05-02T09:30:00Z,26.2168,-96.4998,1011.33,11111222 
TABS,ioos:station:wmo:42045:1,2009-05-02T10:00:00Z,26.2168,-96.4998,1011.38,11111222 
TABS,ioos:station:wmo:42045:1,2009-05-02T10:30:00Z,26.2168,-96.4998,1011.68,11111222 
TABS,ioos:station:wmo:42045:1,2009-05-02T11:00:00Z,26.2168,-96.4998,1012.04,11111222 
TABS,ioos:station:wmo:42045:1,2009-05-02T11:30:00Z,26.2168,-96.4998,1011.83,11111222 
TABS,ioos:station:wmo:42045:1,2009-05-02T12:00:00Z,26.2168,-96.4998,1011.98,11111222 
TABS,ioos:station:wmo:42045:1,2009-05-02T12:30:00Z,26.2168,-96.4998,1011.97,11111222 
TABS,ioos:station:wmo:42045:1,2009-05-02T13:00:00Z,26.2168,-96.4998,1011.78,11111222 
TABS,ioos:station:wmo:42045:1,2009-05-02T13:30:00Z,26.2168,-96.4998,1011.95,11111222 
TABS,ioos:station:wmo:42045:1,2009-05-02T14:00:00Z,26.2168,-96.4998,1012.24,11111222 
TABS,ioos:station:wmo:42045:1,2009-05-02T14:30:00Z,26.2168,-96.4998,1012.35,11111222 
TABS,ioos:station:wmo:42045:1,2009-05-02T15:00:00Z,26.2168,-96.4998,1012.39,11111222 
TABS,ioos:station:wmo:42045:1,2009-05-02T15:30:00Z,26.2168,-96.4998,1012.29,11111222 
TABS,ioos:station:wmo:42045:1,2009-05-02T16:00:00Z,26.2168,-96.4998,1012.21,11111222 
TABS,ioos:station:wmo:42045:1,2009-05-02T16:30:00Z,26.2168,-96.4998,1012.06,11111222 
TABS,ioos:station:wmo:42045:1,2009-05-02T17:00:00Z,26.2168,-96.4998,1011.47,11111222 
TABS,ioos:station:wmo:42045:1,2009-05-02T17:30:00Z,26.2168,-96.4998,1011.13,11111222 
TABS,ioos:station:wmo:42045:1,2009-05-02T18:00:00Z,26.2168,-96.4998,1010.54,11111222 
TABS,ioos:station:wmo:42045:1,2009-05-02T18:30:00Z,26.2168,-96.4998,1009.98,11111222 
TABS,ioos:station:wmo:42045:1,2009-05-02T19:00:00Z,26.2168,-96.4998,1009.74,11111222 
TABS,ioos:station:wmo:42045:1,2009-05-02T19:30:00Z,26.2168,-96.4998,1009.09,11111222 
TABS,ioos:station:wmo:42045:1,2009-05-02T20:00:00Z,26.2168,-96.4998,1008.59,11111222 
TABS,ioos:station:wmo:42045:1,2009-05-02T20:30:00Z,26.2168,-96.4998,1008.32,11111222 
TABS,ioos:station:wmo:42045:1,2009-05-02T21:00:00Z,26.2168,-96.4998,1007.8,11111222 
TABS,ioos:station:wmo:42045:1,2009-05-02T21:30:00Z,26.2168,-96.4998,1007.43,11111222 
TABS,ioos:station:wmo:42045:1,2009-05-02T22:00:00Z,26.2168,-96.4998,1007.28,11111222 
TABS,ioos:station:wmo:42045:1,2009-05-02T22:30:00Z,26.2168,-96.4998,1006.67,11111222 
TABS,ioos:station:wmo:42045:1,2009-05-02T23:00:00Z,26.2168,-96.4998,1006.09,11111222 
TABS,ioos:station:wmo:42045:1,2009-05-02T23:30:00Z,26.2168,-96.4998,1006.24,11111222 
TABS,ioos:station:wmo:42045:1,2009-05-03T00:00:00Z,26.2168,-96.4998,1006.34,11111222 
TABS,ioos:station:wmo:42045:1,2009-05-03T00:30:00Z,26.2168,-96.4998,1006.12,11111222 
TABS,ioos:station:wmo:42045:1,2009-05-03T01:00:00Z,26.2168,-96.4998,1006.37,11111222 
TABS,ioos:station:wmo:42045:1,2009-05-03T01:30:00Z,26.2168,-96.4998,1006.7,11111222 
TABS,ioos:station:wmo:42045:1,2009-05-03T02:00:00Z,26.2168,-96.4998,1007.05,11111222 
TABS,ioos:station:wmo:42045:1,2009-05-03T02:30:00Z,26.2168,-96.4998,1007.72,11111222 
TABS,ioos:station:wmo:42045:1,2009-05-03T03:00:00Z,26.2168,-96.4998,1008.21,11111222 
TABS,ioos:station:wmo:42045:1,2009-05-03T03:30:00Z,26.2168,-96.4998,1008.06,11111222 
TABS,ioos:station:wmo:42045:1,2009-05-03T04:00:00Z,26.2168,-96.4998,1008.26,11111222 
TABS,ioos:station:wmo:42045:1,2009-05-03T04:30:00Z,26.2168,-96.4998,1007.52,11111222 
TABS,ioos:station:wmo:42045:1,2009-05-03T05:00:00Z,26.2168,-96.4998,1006.91,11111222 
TABS,ioos:station:wmo:42045:1,2009-05-03T05:30:00Z,26.2168,-96.4998,1006.24,11111222 
TABS,ioos:station:wmo:42045:1,2009-05-03T06:00:00Z,26.2168,-96.4998,1007.31,11111222 
TABS,ioos:station:wmo:42045:1,2009-05-03T06:30:00Z,26.2168,-96.4998,1008.24,11111222 
TABS,ioos:station:wmo:42045:1,2009-05-03T07:00:00Z,26.2168,-96.4998,1007.26,11111222 
TABS,ioos:station:wmo:42045:1,2009-05-03T07:30:00Z,26.2168,-96.4998,1007.6,11111222 
TABS,ioos:station:wmo:42045:1,2009-05-03T08:00:00Z,26.2168,-96.4998,1007.89,11111222 
TABS,ioos:station:wmo:42045:1,2009-05-03T08:30:00Z,26.2168,-96.4998,1007.83,11111222 
TABS,ioos:station:wmo:42045:1,2009-05-03T09:00:00Z,26.2168,-96.4998,1008.12,11111222 
TABS,ioos:station:wmo:42045:1,2009-05-03T09:30:00Z,26.2168,-96.4998,1007.78,11111222 
TABS,ioos:station:wmo:42045:1,2009-05-03T10:00:00Z,26.2168,-96.4998,1007.94,11111222 
TABS,ioos:station:wmo:42045:1,2009-05-03T10:30:00Z,26.2168,-96.4998,1008.09,11111222 
TABS,ioos:station:wmo:42045:1,2009-05-03T11:00:00Z,26.2168,-96.4998,1007.9,11111222 
TABS,ioos:station:wmo:42045:1,2009-05-03T11:30:00Z,26.2168,-96.4998,1008.37,11111222 
TABS,ioos:station:wmo:42045:1,2009-05-03T12:00:00Z,26.2168,-96.4998,1008.58,11111222 
TABS,ioos:station:wmo:42045:1,2009-05-03T12:30:00Z,26.2168,-96.4998,1008.79,11111222 
TABS,ioos:station:wmo:42045:1,2009-05-03T13:00:00Z,26.2168,-96.4998,1008.95,11111222 
TABS,ioos:station:wmo:42045:1,2009-05-03T13:30:00Z,26.2168,-96.4998,1008.79,11111222 
TABS,ioos:station:wmo:42045:1,2009-05-03T14:00:00Z,26.2168,-96.4998,1008.74,11111222 
TABS,ioos:station:wmo:42045:1,2009-05-03T14:30:00Z,26.2168,-96.4998,1008.79,11111222 
TABS,ioos:station:wmo:42045:1,2009-05-03T15:00:00Z,26.2168,-96.4998,1009.32,11111222 
TABS,ioos:station:wmo:42045:1,2009-05-03T15:30:00Z,26.2168,-96.4998,1008.99,11111222 
TABS,ioos:station:wmo:42045:1,2009-05-03T16:00:00Z,26.2168,-96.4998,1008.88,11111222 
TABS,ioos:station:wmo:42045:1,2009-05-03T16:30:00Z,26.2168,-96.4998,1008.72,11111222 
TABS,ioos:station:wmo:42045:1,2009-05-03T17:00:00Z,26.2168,-96.4998,1008.5,11111222 
TABS,ioos:station:wmo:42045:1,2009-05-03T17:30:00Z,26.2168,-96.4998,1008.61,11111222 
TABS,ioos:station:wmo:42045:1,2009-05-03T18:00:00Z,26.2168,-96.4998,1009.34,11111222 
TABS,ioos:station:wmo:42045:1,2009-05-03T18:30:00Z,26.2168,-96.4998,1009.08,11111222 
TABS,ioos:station:wmo:42045:1,2009-05-03T19:00:00Z,26.2168,-96.4998,1008.59,11111222 
TABS,ioos:station:wmo:42045:1,2009-05-03T19:30:00Z,26.2168,-96.4998,1008.07,11111222 
TABS,ioos:station:wmo:42045:1,2009-05-03T20:00:00Z,26.2168,-96.4998,1007.96,11111222 
TABS,ioos:station:wmo:42045:1,2009-05-03T20:30:00Z,26.2168,-96.4998,1007.53,11111222 
TABS,ioos:station:wmo:42045:1,2009-05-03T21:00:00Z,26.2168,-96.4998,1007.11,11111222 
TABS,ioos:station:wmo:42045:1,2009-05-03T21:30:00Z,26.2168,-96.4998,1006.77,11111222 
TABS,ioos:station:wmo:42045:1,2009-05-03T22:00:00Z,26.2168,-96.4998,1006.74,11111222 
TABS,ioos:station:wmo:42045:1,2009-05-03T22:30:00Z,26.2168,-96.4998,1006.75,11111222 
TABS,ioos:station:wmo:42045:1,2009-05-03T23:00:00Z,26.2168,-96.4998,1006.8,11111222 
TABS,ioos:station:wmo:42045:1,2009-05-03T23:30:00Z,26.2168,-96.4998,1006.85,11111222 
TABS,ioos:station:wmo:42045:1,2009-05-04T00:00:00Z,26.2168,-96.4998,1007.02,11111222 
TABS,ioos:station:wmo:42045:1,2009-05-04T00:30:00Z,26.2168,-96.4998,1007.3,11111222 
TABS,ioos:station:wmo:42045:1,2009-05-04T01:00:00Z,26.2168,-96.4998,1007.63,11111222 
TABS,ioos:station:wmo:42045:1,2009-05-04T01:30:00Z,26.2168,-96.4998,1008.05,11111222 
TABS,ioos:station:wmo:42045:1,2009-05-04T02:00:00Z,26.2168,-96.4998,1008.78,11111222 
TABS,ioos:station:wmo:42045:1,2009-05-04T02:30:00Z,26.2168,-96.4998,1009.17,11111222 
TABS,ioos:station:wmo:42045:1,2009-05-04T03:00:00Z,26.2168,-96.4998,1009.25,11111222 
TABS,ioos:station:wmo:42045:1,2009-05-04T03:30:00Z,26.2168,-96.4998,1009.72,11111222 
TABS,ioos:station:wmo:42045:1,2009-05-04T04:00:00Z,26.2168,-96.4998,1010.05,11111222 
TABS,ioos:station:wmo:42045:1,2009-05-04T04:30:00Z,26.2168,-96.4998,1010.26,11111222 
TABS,ioos:station:wmo:42045:1,2009-05-04T05:00:00Z,26.2168,-96.4998,1009.8,11111222 
TABS,ioos:station:wmo:42045:1,2009-05-04T05:30:00Z,26.2168,-96.4998,1009.86,11111222 
TABS,ioos:station:wmo:42045:1,2009-05-04T06:00:00Z,26.2168,-96.4998,1009.72,11111222 
TABS,ioos:station:wmo:42045:1,2009-05-04T06:30:00Z,26.2168,-96.4998,1009.57,11111222 
TABS,ioos:station:wmo:42045:1,2009-05-04T07:00:00Z,26.2168,-96.4998,1009.6,11111222 
TABS,ioos:station:wmo:42045:1,2009-05-04T07:30:00Z,26.2168,-96.4998,1009.46,11111222 
TABS,ioos:station:wmo:42045:1,2009-05-04T08:00:00Z,26.2168,-96.4998,1009.61,11111222 
TABS,ioos:station:wmo:42045:1,2009-05-04T08:30:00Z,26.2168,-96.4998,1009.74,11111222 
TABS,ioos:station:wmo:42045:1,2009-05-04T09:00:00Z,26.2168,-96.4998,1009.53,11111222 
TABS,ioos:station:wmo:42045:1,2009-05-04T09:30:00Z,26.2168,-96.4998,1009.68,11111222 
TABS,ioos:station:wmo:42045:1,2009-05-04T10:00:00Z,26.2168,-96.4998,1009.57,11111222 
TABS,ioos:station:wmo:42045:1,2009-05-04T10:30:00Z,26.2168,-96.4998,1009.88,11111222 
TABS,ioos:station:wmo:42045:1,2009-05-04T11:00:00Z,26.2168,-96.4998,1009.99,11111222 
TABS,ioos:station:wmo:42045:1,2009-05-04T11:30:00Z,26.2168,-96.4998,1010.66,11111222 
TABS,ioos:station:wmo:42045:1,2009-05-04T12:00:00Z,26.2168,-96.4998,1011.01,11111222 
TABS,ioos:station:wmo:42045:1,2009-05-04T12:30:00Z,26.2168,-96.4998,1011.68,11111222 
TABS,ioos:station:wmo:42045:1,2009-05-04T13:00:00Z,26.2168,-96.4998,1012.13,11111222 
TABS,ioos:station:wmo:42045:1,2009-05-04T13:30:00Z,26.2168,-96.4998,1012.44,11111222 
TABS,ioos:station:wmo:42045:1,2009-05-04T14:00:00Z,26.2168,-96.4998,1012.43,11111222 
TABS,ioos:station:wmo:42045:1,2009-05-04T14:30:00Z,26.2168,-96.4998,1012.97,11111222 
TABS,ioos:station:wmo:42045:1,2009-05-04T15:00:00Z,26.2168,-96.4998,1013.42,11111222 
TABS,ioos:station:wmo:42045:1,2009-05-04T15:30:00Z,26.2168,-96.4998,1013.52,11111222 
TABS,ioos:station:wmo:42045:1,2009-05-04T16:00:00Z,26.2168,-96.4998,1013.62,11111222 
TABS,ioos:station:wmo:42045:1,2009-05-04T16:30:00Z,26.2168,-96.4998,1013.83,11111222 
TABS,ioos:station:wmo:42045:1,2009-05-04T17:00:00Z,26.2168,-96.4998,1013.49,11111222 
TABS,ioos:station:wmo:42045:1,2009-05-04T17:30:00Z,26.2168,-96.4998,1013.4,11111222 
TABS,ioos:station:wmo:42045:1,2009-05-04T18:00:00Z,26.2168,-96.4998,1013.16,11111222 
TABS,ioos:station:wmo:42045:1,2009-05-04T18:30:00Z,26.2168,-96.4998,1012.73,11111222 
TABS,ioos:station:wmo:42045:1,2009-05-04T19:00:00Z,26.2168,-96.4998,1012.33,11111222 
TABS,ioos:station:wmo:42045:1,2009-05-04T19:30:00Z,26.2168,-96.4998,1011.93,11111222 
TABS,ioos:station:wmo:42045:1,2009-05-04T20:00:00Z,26.2168,-96.4998,1011.33,11111222 
TABS,ioos:station:wmo:42045:1,2009-05-04T20:30:00Z,26.2168,-96.4998,1011.05,11111222 
TABS,ioos:station:wmo:42045:1,2009-05-04T21:00:00Z,26.2168,-96.4998,1010.7,11111222 
TABS,ioos:station:wmo:42045:1,2009-05-04T21:30:00Z,26.2168,-96.4998,1010.5,11111222 
TABS,ioos:station:wmo:42045:1,2009-05-04T22:00:00Z,26.2168,-96.4998,1010.14,11111222 
TABS,ioos:station:wmo:42045:1,2009-05-04T22:30:00Z,26.2168,-96.4998,1010.04,11111222 
TABS,ioos:station:wmo:42045:1,2009-05-04T23:00:00Z,26.2168,-96.4998,1010.15,11111222 
TABS,ioos:station:wmo:42045:1,2009-05-04T23:30:00Z,26.2168,-96.4998,1010.1,11111222 
TABS,ioos:station:wmo:42045:1,2009-05-05T00:00:00Z,26.2168,-96.4998,1009.81,11111222 
TABS,ioos:station:wmo:42045:1,2009-05-05T00:30:00Z,26.2168,-96.4998,1010.0,11111222 
TABS,ioos:station:wmo:42045:1,2009-05-05T01:00:00Z,26.2168,-96.4998,1010.13,11111222 
TABS,ioos:station:wmo:42045:1,2009-05-05T01:30:00Z,26.2168,-96.4998,1010.21,11111222 
TABS,ioos:station:wmo:42045:1,2009-05-05T02:00:00Z,26.2168,-96.4998,1010.25,11111222 
TABS,ioos:station:wmo:42045:1,2009-05-05T02:30:00Z,26.2168,-96.4998,1010.42,11111222 
TABS,ioos:station:wmo:42045:1,2009-05-05T03:00:00Z,26.2168,-96.4998,1011.22,11111222 
TABS,ioos:station:wmo:42045:1,2009-05-05T03:30:00Z,26.2168,-96.4998,1011.47,11111222 
TABS,ioos:station:wmo:42045:1,2009-05-05T04:00:00Z,26.2168,-96.4998,1011.9,11111222 
TABS,ioos:station:wmo:42045:1,2009-05-05T04:30:00Z,26.2168,-96.4998,1011.88,11111222 
TABS,ioos:station:wmo:42045:1,2009-05-05T05:00:00Z,26.2168,-96.4998,1011.79,11111222 
TABS,ioos:station:wmo:42045:1,2009-05-05T05:30:00Z,26.2168,-96.4998,1011.22,11111222 
TABS,ioos:station:wmo:42045:1,2009-05-05T06:00:00Z,26.2168,-96.4998,1011.14,11111222 
TABS,ioos:station:wmo:42045:1,2009-05-05T06:30:00Z,26.2168,-96.4998,1010.67,11111222 
TABS,ioos:station:wmo:42045:1,2009-05-05T07:00:00Z,26.2168,-96.4998,1010.65,11111222 
TABS,ioos:station:wmo:42045:1,2009-05-05T07:30:00Z,26.2168,-96.4998,1010.36,11111222 
TABS,ioos:station:wmo:42045:1,2009-05-05T08:00:00Z,26.2168,-96.4998,1010.0,11111222 
TABS,ioos:station:wmo:42045:1,2009-05-05T08:30:00Z,26.2168,-96.4998,1009.86,11111222 
TABS,ioos:station:wmo:42045:1,2009-05-05T09:00:00Z,26.2168,-96.4998,1010.11,11111222 
TABS,ioos:station:wmo:42045:1,2009-05-05T09:30:00Z,26.2168,-96.4998,1009.82,11111222 
TABS,ioos:station:wmo:42045:1,2009-05-05T10:00:00Z,26.2168,-96.4998,1009.88,11111222 
TABS,ioos:station:wmo:42045:1,2009-05-05T10:30:00Z,26.2168,-96.4998,1010.21,11111222 
TABS,ioos:station:wmo:42045:1,2009-05-05T11:00:00Z,26.2168,-96.4998,1010.6,11111222 
TABS,ioos:station:wmo:42045:1,2009-05-05T11:30:00Z,26.2168,-96.4998,1010.63,11111222 
TABS,ioos:station:wmo:42045:1,2009-05-05T12:00:00Z,26.2168,-96.4998,1010.99,11111222 
TABS,ioos:station:wmo:42045:1,2009-05-05T12:30:00Z,26.2168,-96.4998,1011.26,11111222 
TABS,ioos:station:wmo:42045:1,2009-05-05T13:00:00Z,26.2168,-96.4998,1011.74,11111222 
TABS,ioos:station:wmo:42045:1,2009-05-05T13:30:00Z,26.2168,-96.4998,1012.04,11111222 
TABS,ioos:station:wmo:42045:1,2009-05-05T14:00:00Z,26.2168,-96.4998,1012.33,11111222 
TABS,ioos:station:wmo:42045:1,2009-05-05T14:30:00Z,26.2168,-96.4998,1012.45,11111222 
TABS,ioos:station:wmo:42045:1,2009-05-05T15:00:00Z,26.2168,-96.4998,1012.7,11111222 
TABS,ioos:station:wmo:42045:1,2009-05-05T15:30:00Z,26.2168,-96.4998,1012.98,11111222 
TABS,ioos:station:wmo:42045:1,2009-05-05T16:00:00Z,26.2168,-96.4998,1012.55,11111222 
TABS,ioos:station:wmo:42045:1,2009-05-05T16:30:00Z,26.2168,-96.4998,1012.42,11111222 
TABS,ioos:station:wmo:42045:1,2009-05-05T17:00:00Z,26.2168,-96.4998,1012.06,11111222 
TABS,ioos:station:wmo:42045:1,2009-05-05T17:30:00Z,26.2168,-96.4998,1011.54,11111222 
TABS,ioos:station:wmo:42045:1,2009-05-05T18:00:00Z,26.2168,-96.4998,1011.35,11111222 
TABS,ioos:station:wmo:42045:1,2009-05-05T18:30:00Z,26.2168,-96.4998,1010.89,11111222 
TABS,ioos:station:wmo:42045:1,2009-05-05T19:00:00Z,26.2168,-96.4998,1010.41,11111222 
TABS,ioos:station:wmo:42045:1,2009-05-05T19:30:00Z,26.2168,-96.4998,1010.19,11111222 
TABS,ioos:station:wmo:42045:1,2009-05-05T20:00:00Z,26.2168,-96.4998,1009.74,11111222 
TABS,ioos:station:wmo:42045:1,2009-05-05T20:30:00Z,26.2168,-96.4998,1009.45,11111222 
TABS,ioos:station:wmo:42045:1,2009-05-05T21:00:00Z,26.2168,-96.4998,1009.06,11111222 
TABS,ioos:station:wmo:42045:1,2009-05-05T21:30:00Z,26.2168,-96.4998,1008.54,11111222 
TABS,ioos:station:wmo:42045:1,2009-05-05T22:00:00Z,26.2168,-96.4998,1008.12,11111222 
TABS,ioos:station:wmo:42045:1,2009-05-05T22:30:00Z,26.2168,-96.4998,1008.1,11111222 
TABS,ioos:station:wmo:42045:1,2009-05-05T23:00:00Z,26.2168,-96.4998,1008.34,11111222 
TABS,ioos:station:wmo:42045:1,2009-05-05T23:30:00Z,26.2168,-96.4998,1008.15,11111222 
TABS,ioos:station:wmo:42045:1,2009-05-06T00:00:00Z,26.2168,-96.4998,1008.08,11111222 
TABS,ioos:station:wmo:42045:1,2009-05-06T00:30:00Z,26.2168,-96.4998,1007.69,11111222 
TABS,ioos:station:wmo:42045:1,2009-05-06T01:00:00Z,26.2168,-96.4998,1008.1,11111222 
TABS,ioos:station:wmo:42045:1,2009-05-06T01:30:00Z,26.2168,-96.4998,1008.31,11111222 
TABS,ioos:station:wmo:42045:1,2009-05-06T02:00:00Z,26.2168,-96.4998,1008.34,11111222 
TABS,ioos:station:wmo:42045:1,2009-05-06T02:30:00Z,26.2168,-96.4998,1008.83,11111222 
TABS,ioos:station:wmo:42045:1,2009-05-06T03:00:00Z,26.2168,-96.4998,1009.05,11111222 
TABS,ioos:station:wmo:42045:1,2009-05-06T03:30:00Z,26.2168,-96.4998,1009.16,11111222 
TABS,ioos:station:wmo:42045:1,2009-05-06T04:00:00Z,26.2168,-96.4998,1009.47,11111222 
TABS,ioos:station:wmo:42045:1,2009-05-06T04:30:00Z,26.2168,-96.4998,1009.69,11111222 
TABS,ioos:station:wmo:42045:1,2009-05-06T05:00:00Z,26.2168,-96.4998,1009.63,11111222 
TABS,ioos:station:wmo:42045:1,2009-05-06T05:30:00Z,26.2168,-96.4998,1009.29,11111222 
TABS,ioos:station:wmo:42045:1,2009-05-06T06:00:00Z,26.2168,-96.4998,1008.9,11111222 
TABS,ioos:station:wmo:42045:1,2009-05-06T06:30:00Z,26.2168,-96.4998,1008.71,11111222 
TABS,ioos:station:wmo:42045:1,2009-05-06T07:00:00Z,26.2168,-96.4998,1008.47,11111222 
TABS,ioos:station:wmo:42045:1,2009-05-06T07:30:00Z,26.2168,-96.4998,1007.66,11111222 
TABS,ioos:station:wmo:42045:1,2009-05-06T08:00:00Z,26.2168,-96.4998,1007.36,11111222 
TABS,ioos:station:wmo:42045:1,2009-05-06T08:30:00Z,26.2168,-96.4998,1007.18,11111222 
TABS,ioos:station:wmo:42045:1,2009-05-06T09:00:00Z,26.2168,-96.4998,1007.38,11111222 
TABS,ioos:station:wmo:42045:1,2009-05-06T09:30:00Z,26.2168,-96.4998,1007.3,11111222 
TABS,ioos:station:wmo:42045:1,2009-05-06T10:00:00Z,26.2168,-96.4998,1007.57,11111222 
TABS,ioos:station:wmo:42045:1,2009-05-06T10:30:00Z,26.2168,-96.4998,1007.65,11111222 
TABS,ioos:station:wmo:42045:1,2009-05-06T11:00:00Z,26.2168,-96.4998,1007.47,11111222 
TABS,ioos:station:wmo:42045:1,2009-05-06T11:30:00Z,26.2168,-96.4998,1007.58,11111222 
TABS,ioos:station:wmo:42045:1,2009-05-06T12:00:00Z,26.2168,-96.4998,1007.92,11111222 
TABS,ioos:station:wmo:42045:1,2009-05-06T12:30:00Z,26.2168,-96.4998,1008.44,11111222 
TABS,ioos:station:wmo:42045:1,2009-05-06T13:00:00Z,26.2168,-96.4998,1008.5,11111222 
TABS,ioos:station:wmo:42045:1,2009-05-06T13:30:00Z,26.2168,-96.4998,1008.7,11111222 
TABS,ioos:station:wmo:42045:1,2009-05-06T14:00:00Z,26.2168,-96.4998,1008.32,11111222 
TABS,ioos:station:wmo:42045:1,2009-05-06T14:30:00Z,26.2168,-96.4998,1009.6,11111222 
TABS,ioos:station:wmo:42045:1,2009-05-06T15:00:00Z,26.2168,-96.4998,1009.64,11111222 
TABS,ioos:station:wmo:42045:1,2009-05-06T15:30:00Z,26.2168,-96.4998,1009.39,11111222 
TABS,ioos:station:wmo:42045:1,2009-05-06T16:00:00Z,26.2168,-96.4998,1009.51,11111222 
TABS,ioos:station:wmo:42045:1,2009-05-06T16:30:00Z,26.2168,-96.4998,1009.76,11111222 
TABS,ioos:station:wmo:42045:1,2009-05-06T17:00:00Z,26.2168,-96.4998,1009.97,11111222 
TABS,ioos:station:wmo:42045:1,2009-05-06T17:30:00Z,26.2168,-96.4998,1009.78,11111222 
TABS,ioos:station:wmo:42045:1,2009-05-06T18:00:00Z,26.2168,-96.4998,1009.48,11111222 
TABS,ioos:station:wmo:42045:1,2009-05-06T18:30:00Z,26.2168,-96.4998,1009.3,11111222 